START_TIME,STEP,MOV.,AL01,t_acc.,AL02,t_acc.,E37,t_acc.,H21,t_acc.
1979-07-17 12:00:34.300 ,0,0,1.,24.0,0.,24.0,6.,24.0,0.,24.0
1979-07-17 12:00:58.300 ,1,1,0.,24.0,0.,24.0,11.,24.0,0.,24.0
1979-07-17 12:01:22.300 ,1,0,0.,24.0,0.,24.0,6.,24.0,0.,24.0
1979-07-17 12:01:46.300 ,2,1,0.,24.0,0.,24.0,9.,24.0,0.,24.0
1979-07-17 12:02:10.300 ,2,0,0.,24.0,0.,24.0,8.,24.0,0.,24.0
1979-07-17 12:02:34.300 ,3,1,0.,24.0,1.,24.0,4.,24.0,0.,24.0
1979-07-17 12:02:58.300 ,3,0,0.,24.0,0.,24.0,1.,24.0,0.,24.0
1979-07-17 12:03:22.300 ,4,1,0.,24.0,0.,24.0,5.,24.0,0.,24.0
1979-07-17 12:03:46.300 ,4,0,1.,24.0,0.,24.0,3.,24.0,0.,24.0
1979-07-17 12:04:10.300 ,5,1,0.,24.0,1.,24.0,6.,24.0,0.,24.0
1979-07-17 12:04:34.300 ,5,0,0.,24.0,2.,24.0,3.,24.0,0.,24.0
1979-07-17 12:04:58.300 ,6,1,1.,24.0,0.,24.0,4.,24.0,0.,24.0
1979-07-17 12:05:22.300 ,6,0,0.,24.0,0.,24.0,8.,24.0,0.,24.0
1979-07-17 12:05:46.300 ,7,1,5.,24.0,0.,24.0,5.,24.0,0.,24.0
1979-07-17 12:06:10.300 ,7,0,34.,24.0,0.,24.0,6.,24.0,0.,24.0
1979-07-17 12:06:34.300 ,7,1,23.,24.0,0.,24.0,5.,24.0,0.,24.0
1979-07-17 12:06:58.300 ,7,0,18.,24.0,0.,24.0,5.,24.0,0.,24.0
1979-07-17 12:07:22.300 ,6,1,28.,24.0,0.,24.0,8.,24.0,0.,24.0
1979-07-17 12:07:46.300 ,6,0,0.,24.0,0.,24.0,4.,24.0,0.,24.0
1979-07-17 12:08:10.300 ,5,1,0.,24.0,0.,24.0,6.,24.0,0.,24.0
1979-07-17 12:08:34.300 ,5,0,1.,24.0,0.,24.0,8.,24.0,0.,24.0
1979-07-17 12:08:58.300 ,4,1,0.,24.0,1.,24.0,8.,24.0,0.,24.0
1979-07-17 12:09:22.300 ,4,0,0.,24.0,0.,24.0,8.,24.0,0.,24.0
1979-07-17 12:09:46.300 ,3,1,0.,24.0,0.,24.0,4.,24.0,0.,24.0
1979-07-17 12:10:10.300 ,3,0,2.,24.0,1.,24.0,4.,24.0,0.,24.0
1979-07-17 12:10:34.300 ,2,1,1.,24.0,0.,24.0,4.,24.0,0.,24.0
1979-07-17 12:10:58.300 ,2,0,2.,24.0,0.,24.0,7.,24.0,0.,24.0
1979-07-17 12:11:22.300 ,1,1,1.,24.0,0.,24.0,6.,24.0,0.,24.0
1979-07-17 12:11:46.300 ,0,0,0.,24.0,1.,24.0,3.,24.0,0.,24.0
1979-07-17 12:11:46.300 ,1,0,0.,24.0,1.,24.0,3.,24.0,0.,24.0
1979-07-17 12:12:10.300 ,0,1,0.,24.0,0.,24.0,5.,24.0,0.,24.0
1979-07-17 12:12:34.300 ,0,0,0.,24.0,0.,24.0,10.,24.0,0.,24.0
1979-07-17 12:12:58.300 ,0,1,0.,24.0,1.,24.0,7.,24.0,0.,24.0
1979-07-17 12:13:22.300 ,0,0,0.,24.0,0.,24.0,6.,24.0,0.,24.0
1979-07-17 12:13:46.300 ,1,1,0.,24.0,1.,24.0,10.,24.0,0.,24.0
1979-07-17 12:14:10.300 ,1,0,0.,24.0,0.,24.0,8.,24.0,0.,24.0
1979-07-17 12:14:34.300 ,2,1,2.,24.0,0.,24.0,9.,24.0,0.,24.0
1979-07-17 12:14:58.300 ,2,0,1.,24.0,0.,24.0,4.,24.0,0.,24.0
1979-07-17 12:15:22.300 ,3,1,2.,24.0,0.,24.0,5.,24.0,0.,24.0
1979-07-17 12:15:46.300 ,3,0,0.,24.0,1.,24.0,2.,24.0,0.,24.0
1979-07-17 12:16:10.300 ,4,1,1.,24.0,0.,24.0,7.,24.0,0.,24.0
1979-07-17 12:16:34.300 ,4,0,1.,24.0,0.,24.0,12.,24.0,0.,24.0
1979-07-17 12:16:58.300 ,5,1,3.,24.0,0.,24.0,3.,24.0,0.,24.0
1979-07-17 12:17:22.300 ,5,0,1.,24.0,0.,24.0,8.,24.0,0.,24.0
1979-07-17 12:17:46.300 ,6,1,0.,24.0,0.,24.0,8.,24.0,0.,24.0
1979-07-17 12:18:10.300 ,6,0,1.,24.0,0.,24.0,6.,24.0,0.,24.0
1979-07-17 12:18:34.300 ,7,0,2.,24.0,0.,24.0,3.,24.0,0.,24.0
1979-07-17 12:18:58.300 ,7,0,35.,24.0,0.,24.0,5.,24.0,0.,24.0
1979-07-17 12:19:22.300 ,5,1,16.,24.0,0.,24.0,4.,24.0,0.,24.0
1979-07-17 12:19:46.300 ,1,1,0.,24.0,0.,24.0,7.,24.0,0.,24.0
1979-07-17 12:20:10.300 ,2,1,1.,24.0,0.,24.0,4.,24.0,0.,24.0
1979-07-17 12:20:34.300 ,6,1,0.,24.0,1.,24.0,2.,24.0,0.,24.0
1979-07-17 12:20:58.300 ,5,1,17.,24.0,0.,24.0,4.,24.0,0.,24.0
1979-07-17 12:21:22.300 ,1,1,1.,24.0,0.,24.0,9.,24.0,0.,24.0
1979-07-17 12:21:46.300 ,0,0,1.,24.0,0.,24.0,3.,24.0,0.,24.0
1979-07-17 12:22:10.300 ,6,1,0.,24.0,0.,24.0,6.,24.0,0.,24.0
1979-07-17 12:22:34.300 ,5,1,15.,24.0,0.,24.0,5.,24.0,0.,24.0
1979-07-17 12:22:58.300 ,1,1,1.,24.0,0.,24.0,4.,24.0,0.,24.0
1979-07-17 12:23:22.300 ,2,1,1.,24.0,0.,24.0,2.,24.0,0.,24.0
1979-07-17 12:23:46.300 ,6,1,0.,24.0,0.,24.0,3.,24.0,0.,24.0
1979-07-17 12:24:10.300 ,5,1,14.,24.0,0.,24.0,6.,24.0,0.,24.0
1979-07-17 12:24:34.300 ,1,1,0.,24.0,0.,24.0,5.,24.0,0.,24.0
1979-07-17 12:24:58.300 ,2,1,1.,24.0,0.,24.0,3.,24.0,0.,24.0
1979-07-17 12:25:22.300 ,6,1,2.,24.0,0.,24.0,4.,24.0,0.,24.0
1979-07-17 12:25:46.300 ,5,1,7.,24.0,0.,24.0,6.,24.0,0.,24.0
1979-07-17 12:26:10.300 ,1,1,0.,24.0,1.,24.0,7.,24.0,0.,24.0
1979-07-17 12:26:34.300 ,2,1,2.,24.0,0.,24.0,2.,24.0,0.,24.0
1979-07-17 12:26:58.300 ,6,1,0.,24.0,0.,24.0,6.,24.0,0.,24.0
1979-07-17 12:27:22.300 ,5,1,11.,24.0,0.,24.0,5.,24.0,0.,24.0
1979-07-17 12:27:46.300 ,1,1,0.,24.0,0.,24.0,5.,24.0,0.,24.0
1979-07-17 12:28:10.300 ,2,1,0.,24.0,0.,24.0,6.,24.0,0.,24.0
1979-07-17 12:28:34.300 ,6,1,1.,24.0,0.,24.0,7.,24.0,0.,24.0
1979-07-17 12:28:58.300 ,5,1,21.,24.0,1.,24.0,8.,24.0,0.,24.0
1979-07-17 12:29:22.300 ,1,1,2.,24.0,0.,24.0,2.,24.0,0.,24.0
1979-07-17 12:29:46.300 ,0,0,0.,24.0,0.,24.0,3.,24.0,0.,24.0
1979-07-17 12:30:10.300 ,0,0,1.,24.0,0.,24.0,7.,24.0,0.,24.0
1979-07-17 12:30:34.300 ,5,1,19.,24.0,0.,24.0,7.,24.0,0.,24.0
1979-07-17 12:30:58.300 ,5,0,0.,24.0,0.,24.0,10.,24.0,0.,24.0
1979-07-17 12:31:22.300 ,4,1,0.,24.0,0.,24.0,1.,24.0,0.,24.0
1979-07-17 12:31:46.300 ,4,0,0.,24.0,0.,24.0,6.,24.0,0.,24.0
1979-07-17 12:32:10.300 ,3,1,2.,24.0,0.,24.0,0.,24.0,0.,24.0
1979-07-17 12:32:34.300 ,3,0,2.,24.0,0.,24.0,5.,24.0,0.,24.0
1979-07-17 12:32:58.300 ,2,1,0.,24.0,1.,24.0,4.,24.0,0.,24.0
1979-07-17 12:33:22.300 ,2,0,1.,24.0,0.,24.0,5.,24.0,0.,24.0
1979-07-17 12:33:46.300 ,1,1,1.,24.0,0.,24.0,8.,24.0,0.,24.0
1979-07-17 12:34:10.290 ,1,0,3.,24.0,0.,24.0,6.,24.0,0.,24.0
1979-07-17 12:34:34.300 ,0,1,0.,24.0,0.,24.0,4.,24.0,0.,24.0
1979-07-17 12:34:58.300 ,0,0,0.,24.0,0.,24.0,6.,24.0,0.,24.0
1979-07-17 12:35:22.300 ,0,1,2.,24.0,0.,24.0,5.,24.0,0.,24.0
1979-07-17 12:35:46.300 ,0,0,1.,24.0,0.,24.0,3.,24.0,0.,24.0
1979-07-17 12:36:10.300 ,1,1,0.,24.0,0.,24.0,5.,24.0,0.,24.0
1979-07-17 12:36:34.300 ,1,0,0.,24.0,1.,24.0,1.,24.0,0.,24.0
1979-07-17 12:36:58.300 ,2,1,1.,24.0,0.,24.0,4.,24.0,0.,24.0
1979-07-17 12:37:22.300 ,2,0,1.,24.0,0.,24.0,8.,24.0,0.,24.0
1979-07-17 12:37:46.300 ,3,1,0.,24.0,0.,24.0,3.,24.0,0.,24.0
1979-07-17 12:38:10.300 ,3,0,0.,24.0,2.,24.0,1.,24.0,0.,24.0
1979-07-17 12:38:34.300 ,4,1,0.,24.0,0.,24.0,0.,24.0,0.,24.0
1979-07-17 12:38:58.300 ,4,0,1.,24.0,0.,24.0,5.,24.0,0.,24.0
1979-07-17 12:39:22.300 ,5,1,2.,24.0,0.,24.0,4.,24.0,0.,24.0
1979-07-17 12:39:46.300 ,5,0,0.,24.0,1.,24.0,2.,24.0,0.,24.0
1979-07-17 12:40:10.300 ,6,1,0.,24.0,0.,24.0,9.,24.0,0.,24.0
1979-07-17 12:40:34.300 ,6,0,0.,24.0,0.,24.0,3.,24.0,0.,24.0
1979-07-17 12:40:58.300 ,7,1,4.,24.0,1.,24.0,3.,24.0,0.,24.0
1979-07-17 12:41:22.300 ,7,0,40.,24.0,0.,24.0,1.,24.0,0.,24.0
1979-07-17 12:41:46.300 ,7,1,20.,24.0,0.,24.0,5.,24.0,0.,24.0
1979-07-17 12:42:10.300 ,7,0,25.,24.0,0.,24.0,3.,24.0,0.,24.0
1979-07-17 12:42:34.300 ,6,1,20.,24.0,0.,24.0,2.,24.0,0.,24.0
1979-07-17 12:42:58.300 ,6,0,1.,24.0,0.,24.0,1.,24.0,0.,24.0
1979-07-17 12:43:22.300 ,5,1,0.,24.0,0.,24.0,1.,24.0,0.,24.0
1979-07-17 12:43:46.300 ,5,0,1.,24.0,0.,24.0,5.,24.0,0.,24.0
1979-07-17 12:44:10.300 ,4,1,1.,24.0,0.,24.0,7.,24.0,0.,24.0
1979-07-17 12:44:34.300 ,4,0,1.,24.0,0.,24.0,6.,24.0,0.,24.0
1979-07-17 12:44:58.300 ,3,1,0.,24.0,0.,24.0,3.,24.0,0.,24.0
1979-07-17 12:45:22.300 ,3,0,2.,24.0,0.,24.0,3.,24.0,0.,24.0
1979-07-17 12:45:46.300 ,2,1,0.,24.0,1.,24.0,1.,24.0,0.,24.0
1979-07-17 12:46:10.300 ,2,0,2.,24.0,0.,24.0,3.,24.0,0.,24.0
1979-07-17 12:46:34.300 ,1,1,1.,24.0,1.,24.0,1.,24.0,0.,24.0
1979-07-17 12:46:58.300 ,1,0,1.,24.0,0.,24.0,2.,24.0,0.,24.0
1979-07-17 12:47:22.300 ,0,1,2.,24.0,0.,24.0,1.,24.0,0.,24.0
1979-07-17 12:47:46.300 ,0,0,0.,24.0,0.,24.0,0.,24.0,0.,24.0
1979-07-17 12:48:10.290 ,0,1,0.,24.0,0.,24.0,3.,24.0,0.,24.0
1979-07-17 12:48:34.290 ,0,0,0.,24.0,1.,24.0,0.,24.0,0.,24.0
1979-07-17 12:48:58.290 ,1,1,0.,24.0,0.,24.0,2.,24.0,0.,24.0
1979-07-17 12:49:22.290 ,1,0,1.,24.0,0.,24.0,1.,24.0,0.,24.0
1979-07-17 12:49:46.290 ,2,1,0.,24.0,0.,24.0,4.,24.0,0.,24.0
1979-07-17 12:50:10.290 ,2,0,1.,24.0,0.,24.0,1.,24.0,0.,24.0
1979-07-17 12:50:34.290 ,3,1,0.,24.0,0.,24.0,2.,24.0,0.,24.0
1979-07-17 12:50:58.290 ,3,0,0.,24.0,1.,24.0,3.,24.0,0.,24.0
1979-07-17 12:51:22.290 ,4,1,0.,24.0,1.,24.0,3.,24.0,0.,24.0
1979-07-17 12:51:46.290 ,4,0,3.,24.0,0.,24.0,2.,24.0,0.,24.0
1979-07-17 12:52:10.290 ,5,1,0.,24.0,0.,24.0,2.,24.0,0.,24.0
1979-07-17 12:52:34.290 ,5,0,0.,24.0,0.,24.0,1.,24.0,0.,24.0
1979-07-17 12:52:58.290 ,6,1,0.,24.0,1.,24.0,1.,24.0,0.,24.0
1979-07-17 12:53:22.290 ,6,0,0.,24.0,1.,24.0,4.,24.0,0.,24.0
1979-07-17 12:53:46.290 ,7,1,8.,24.0,0.,24.0,4.,24.0,0.,24.0
1979-07-17 12:54:10.290 ,7,0,19.,24.0,0.,24.0,5.,24.0,0.,24.0
1979-07-17 12:54:34.290 ,0,0,33.,24.0,0.,24.0,3.,24.0,0.,24.0
1979-07-17 12:54:58.290 ,0,0,30.,24.0,0.,24.0,2.,24.0,0.,24.0
1979-07-17 12:55:22.290 ,6,1,21.,24.0,0.,24.0,4.,24.0,0.,24.0
1979-07-17 12:55:46.290 ,6,0,0.,24.0,0.,24.0,4.,24.0,0.,24.0
1979-07-17 12:56:10.290 ,5,1,0.,24.0,0.,24.0,1.,24.0,0.,24.0
1979-07-17 12:56:34.290 ,5,0,0.,24.0,0.,24.0,3.,24.0,0.,24.0
1979-07-17 12:56:58.290 ,4,1,0.,24.0,0.,24.0,1.,24.0,0.,24.0
1979-07-17 12:57:22.290 ,4,0,1.,24.0,0.,24.0,1.,24.0,0.,24.0
1979-07-17 12:57:46.290 ,3,1,2.,24.0,0.,24.0,2.,24.0,0.,24.0
1979-07-17 12:58:10.290 ,3,0,0.,24.0,0.,24.0,0.,24.0,0.,24.0
1979-07-17 12:58:34.290 ,2,1,1.,24.0,0.,24.0,1.,24.0,0.,24.0
1979-07-17 12:58:58.290 ,2,0,0.,24.0,0.,24.0,2.,24.0,0.,24.0
1979-07-17 12:59:22.290 ,1,1,1.,24.0,0.,24.0,4.,24.0,0.,24.0
1979-07-17 12:59:46.290 ,1,0,1.,24.0,0.,24.0,4.,24.0,0.,24.0
1979-07-17 13:00:10.290 ,0,1,0.,24.0,0.,24.0,1.,24.0,0.,24.0
1979-07-17 13:00:34.290 ,0,0,3.,24.0,0.,24.0,2.,24.0,0.,24.0
1979-07-17 13:00:58.290 ,0,1,0.,24.0,0.,24.0,1.,24.0,0.,24.0
1979-07-17 13:01:22.290 ,0,0,0.,24.0,1.,24.0,3.,24.0,0.,24.0
1979-07-17 13:01:46.290 ,1,1,0.,24.0,0.,24.0,1.,24.0,0.,24.0
1979-07-17 13:02:10.290 ,1,0,2.,24.0,0.,24.0,3.,24.0,0.,24.0
1979-07-17 13:02:34.290 ,2,1,0.,24.0,0.,24.0,5.,24.0,0.,24.0
1979-07-17 13:02:58.290 ,2,0,0.,24.0,0.,24.0,0.,24.0,0.,24.0
1979-07-17 13:03:22.290 ,3,1,1.,24.0,1.,24.0,4.,24.0,0.,24.0
1979-07-17 13:03:46.290 ,3,0,1.,24.0,1.,24.0,1.,24.0,0.,24.0
1979-07-17 13:04:10.290 ,4,1,0.,24.0,1.,24.0,0.,24.0,0.,24.0
1979-07-17 13:04:34.290 ,4,0,1.,24.0,0.,24.0,2.,24.0,0.,24.0
1979-07-17 13:05:22.290 ,5,0,1.,24.0,0.,24.0,1.,24.0,0.,24.0
1979-07-17 13:05:46.290 ,6,1,1.,24.0,0.,24.0,6.,24.0,0.,24.0
1979-07-17 13:06:10.290 ,6,0,2.,24.0,0.,24.0,2.,24.0,0.,24.0
1979-07-17 13:06:34.290 ,7,0,8.,24.0,1.,24.0,2.,24.0,0.,24.0
1979-07-17 13:06:58.290 ,7,0,29.,24.0,0.,24.0,4.,24.0,0.,24.0
1979-07-17 13:07:22.290 ,5,1,16.,24.0,0.,24.0,2.,24.0,0.,24.0
1979-07-17 13:07:46.290 ,1,1,1.,24.0,2.,24.0,0.,24.0,0.,24.0
1979-07-17 13:08:10.290 ,0,0,0.,24.0,0.,24.0,4.,24.0,0.,24.0
1979-07-17 13:08:34.290 ,6,1,2.,24.0,0.,24.0,4.,24.0,0.,24.0
1979-07-17 13:08:58.290 ,5,1,17.,24.0,1.,24.0,1.,24.0,0.,24.0
1979-07-17 13:09:22.290 ,1,1,2.,24.0,0.,24.0,3.,24.0,0.,24.0
1979-07-17 13:09:46.290 ,2,1,0.,24.0,1.,24.0,2.,24.0,0.,24.0
1979-07-17 13:10:10.290 ,6,1,0.,24.0,0.,24.0,3.,24.0,0.,24.0
1979-07-17 13:10:34.290 ,5,1,19.,24.0,0.,24.0,1.,24.0,0.,24.0
1979-07-17 13:10:58.290 ,1,1,1.,24.0,1.,24.0,3.,24.0,0.,24.0
1979-07-17 13:11:22.290 ,2,1,1.,24.0,0.,24.0,2.,24.0,0.,24.0
1979-07-17 13:11:46.290 ,6,1,1.,24.0,0.,24.0,0.,24.0,0.,24.0
1979-07-17 13:12:10.290 ,5,1,18.,24.0,0.,24.0,4.,24.0,0.,24.0
1979-07-17 13:12:34.290 ,1,1,0.,24.0,0.,24.0,2.,24.0,0.,24.0
1979-07-17 13:12:58.290 ,2,1,0.,24.0,0.,24.0,1.,24.0,0.,24.0
1979-07-17 13:13:22.290 ,6,1,0.,24.0,0.,24.0,2.,24.0,0.,24.0
1979-07-17 13:13:46.290 ,5,1,15.,24.0,1.,24.0,1.,24.0,0.,24.0
1979-07-17 13:14:10.290 ,1,1,0.,24.0,0.,24.0,1.,24.0,0.,24.0
1979-07-17 13:14:34.290 ,2,1,1.,24.0,0.,24.0,2.,24.0,0.,24.0
1979-07-17 13:14:58.290 ,6,1,0.,24.0,0.,24.0,2.,24.0,0.,24.0
1979-07-17 13:15:22.290 ,5,1,16.,24.0,0.,24.0,1.,24.0,0.,24.0
1979-07-17 13:15:46.290 ,1,1,0.,24.0,0.,24.0,0.,24.0,0.,24.0
1979-07-17 13:16:10.290 ,2,1,1.,24.0,0.,24.0,0.,24.0,0.,24.0
1979-07-17 13:16:34.290 ,6,1,2.,24.0,0.,24.0,1.,24.0,0.,24.0
1979-07-17 13:16:58.290 ,5,1,15.,24.0,0.,24.0,2.,24.0,0.,24.0
1979-07-17 13:17:22.290 ,1,1,1.,24.0,0.,24.0,1.,24.0,0.,24.0
1979-07-17 13:17:46.290 ,0,0,0.,24.0,0.,24.0,1.,24.0,0.,24.0
1979-07-17 13:18:10.290 ,0,0,0.,24.0,1.,24.0,2.,24.0,0.,24.0
1979-07-17 13:18:34.290 ,5,1,21.,24.0,0.,24.0,0.,24.0,0.,24.0
1979-07-17 13:18:58.290 ,5,0,0.,24.0,0.,24.0,1.,24.0,0.,24.0
1979-07-17 13:19:22.290 ,4,1,1.,24.0,0.,24.0,0.,24.0,0.,24.0
1979-07-17 13:19:46.290 ,4,0,2.,24.0,0.,24.0,1.,24.0,0.,24.0
1979-07-17 13:20:10.290 ,3,1,0.,24.0,0.,24.0,1.,24.0,0.,24.0
1979-07-17 13:20:34.290 ,3,0,0.,24.0,0.,24.0,1.,24.0,0.,24.0
1979-07-17 13:20:58.290 ,2,1,1.,24.0,0.,24.0,0.,24.0,0.,24.0
1979-07-17 13:21:22.290 ,2,0,1.,24.0,0.,24.0,0.,24.0,0.,24.0
1979-07-17 13:21:46.290 ,1,1,1.,24.0,1.,24.0,0.,24.0,0.,24.0
1979-07-17 13:22:10.290 ,1,0,0.,24.0,0.,24.0,1.,24.0,0.,24.0
1979-07-17 13:22:34.290 ,0,1,1.,24.0,0.,24.0,2.,24.0,0.,24.0
1979-07-17 13:22:58.290 ,0,0,0.,24.0,1.,24.0,0.,24.0,0.,24.0
1979-07-17 13:23:22.290 ,0,1,0.,24.0,0.,24.0,1.,24.0,0.,24.0
1979-07-17 13:23:46.290 ,0,0,0.,24.0,0.,24.0,2.,24.0,0.,24.0
1979-07-17 13:24:10.290 ,1,1,0.,24.0,0.,24.0,0.,24.0,0.,24.0
1979-07-17 13:24:34.290 ,1,0,2.,24.0,1.,24.0,2.,24.0,0.,24.0
1979-07-17 13:24:58.290 ,2,1,0.,24.0,0.,24.0,0.,24.0,0.,24.0
1979-07-17 13:25:22.290 ,2,0,1.,24.0,0.,24.0,1.,24.0,0.,24.0
1979-07-17 13:25:46.290 ,3,1,0.,24.0,0.,24.0,1.,24.0,0.,24.0
1979-07-17 13:26:10.290 ,3,0,0.,24.0,0.,24.0,0.,24.0,0.,24.0
1979-07-17 13:26:34.290 ,4,1,0.,24.0,0.,24.0,1.,24.0,0.,24.0
1979-07-17 13:26:58.290 ,4,0,0.,24.0,0.,24.0,3.,24.0,0.,24.0
1979-07-17 13:27:22.290 ,5,1,0.,24.0,0.,24.0,4.,24.0,0.,24.0
1979-07-17 13:27:46.290 ,5,0,2.,24.0,0.,24.0,0.,24.0,0.,24.0
1979-07-17 13:28:10.290 ,6,1,3.,24.0,0.,24.0,1.,24.0,0.,24.0
1979-07-17 13:28:34.290 ,6,0,0.,24.0,0.,24.0,1.,24.0,0.,24.0
1979-07-17 13:28:58.290 ,7,1,8.,24.0,0.,24.0,0.,24.0,0.,24.0
1979-07-17 13:29:22.290 ,7,0,32.,24.0,0.,24.0,2.,24.0,0.,24.0
1979-07-17 13:29:46.290 ,7,1,38.,24.0,0.,24.0,0.,24.0,0.,24.0
1979-07-17 13:30:10.290 ,7,0,20.,24.0,0.,24.0,0.,24.0,0.,24.0
1979-07-17 13:30:34.290 ,6,1,22.,24.0,0.,24.0,0.,24.0,0.,24.0
1979-07-17 13:30:58.290 ,6,0,0.,24.0,0.,24.0,0.,24.0,0.,24.0
1979-07-17 13:31:22.290 ,5,1,0.,24.0,0.,24.0,0.,24.0,0.,24.0
1979-07-17 13:31:46.290 ,5,0,1.,24.0,0.,24.0,1.,24.0,0.,24.0
1979-07-17 13:32:10.290 ,4,1,0.,24.0,0.,24.0,2.,24.0,0.,24.0
1979-07-17 13:32:34.290 ,4,0,0.,24.0,0.,24.0,0.,24.0,0.,24.0
1979-07-17 13:32:58.290 ,3,1,1.,24.0,0.,24.0,1.,24.0,0.,24.0
1979-07-17 13:33:22.290 ,3,0,0.,24.0,0.,24.0,0.,24.0,0.,24.0
1979-07-17 13:33:46.290 ,2,1,0.,24.0,0.,24.0,0.,24.0,0.,24.0
1979-07-17 13:34:10.290 ,2,0,0.,24.0,0.,24.0,0.,24.0,0.,24.0
1979-07-17 13:34:34.290 ,1,1,1.,24.0,0.,24.0,0.,24.0,0.,24.0
1979-07-17 13:34:58.290 ,1,0,0.,24.0,0.,24.0,1.,24.0,0.,24.0
1979-07-17 13:35:22.290 ,0,1,1.,24.0,0.,24.0,0.,24.0,0.,24.0
1979-07-17 13:35:46.290 ,0,0,0.,24.0,0.,24.0,1.,24.0,0.,24.0
1979-07-17 13:36:10.290 ,0,1,1.,24.0,1.,24.0,2.,24.0,0.,24.0
1979-07-17 13:36:34.290 ,0,0,0.,24.0,0.,24.0,3.,24.0,0.,24.0
1979-07-17 13:36:58.290 ,1,1,0.,24.0,0.,24.0,0.,24.0,0.,24.0
1979-07-17 13:37:22.290 ,1,0,1.,24.0,0.,24.0,0.,24.0,0.,24.0
1979-07-17 13:37:46.290 ,2,1,0.,24.0,0.,24.0,0.,24.0,0.,24.0
1979-07-17 13:38:10.290 ,2,0,1.,24.0,0.,24.0,0.,24.0,0.,24.0
1979-07-17 13:38:34.290 ,3,1,0.,24.0,0.,24.0,0.,24.0,0.,24.0
1979-07-17 13:38:58.290 ,3,0,0.,24.0,0.,24.0,0.,24.0,0.,24.0
1979-07-17 13:39:22.290 ,4,1,1.,24.0,0.,24.0,0.,24.0,0.,24.0
1979-07-17 13:39:46.290 ,4,0,0.,24.0,1.,24.0,0.,24.0,0.,24.0
1979-07-17 13:40:10.290 ,5,1,1.,24.0,0.,24.0,0.,24.0,0.,24.0
1979-07-17 13:40:34.290 ,5,0,0.,24.0,0.,24.0,0.,24.0,0.,24.0
1979-07-17 13:40:58.290 ,6,1,0.,24.0,0.,24.0,0.,24.0,0.,24.0
1979-07-17 13:41:22.290 ,6,0,1.,24.0,0.,24.0,0.,24.0,0.,24.0
1979-07-17 13:41:46.290 ,7,1,8.,24.0,0.,24.0,0.,24.0,0.,24.0
1979-07-17 13:42:10.290 ,7,0,30.,24.0,0.,24.0,0.,24.0,0.,24.0
1979-07-17 13:42:34.290 ,7,1,31.,24.0,0.,24.0,0.,24.0,0.,24.0
1979-07-17 13:42:58.290 ,7,0,30.,24.0,0.,24.0,0.,24.0,0.,24.0
1979-07-17 13:43:22.290 ,6,1,34.,24.0,0.,24.0,0.,24.0,0.,24.0
1979-07-17 13:43:46.290 ,6,0,1.,24.0,0.,24.0,0.,24.0,0.,24.0
1979-07-17 13:44:10.290 ,5,1,1.,24.0,0.,24.0,0.,24.0,0.,24.0
1979-07-17 13:44:34.290 ,5,0,0.,24.0,0.,24.0,0.,24.0,0.,24.0
1979-07-17 13:44:58.290 ,4,1,1.,24.0,1.,24.0,0.,24.0,0.,24.0
1979-07-17 13:45:22.290 ,4,0,0.,24.0,0.,24.0,0.,24.0,0.,24.0
1979-07-17 13:45:46.290 ,3,1,0.,24.0,0.,24.0,0.,24.0,0.,24.0
1979-07-17 13:46:10.290 ,3,0,0.,24.0,0.,24.0,0.,24.0,0.,24.0
1979-07-17 13:46:34.290 ,2,1,0.,24.0,0.,24.0,0.,24.0,0.,24.0
1979-07-17 13:46:58.290 ,2,0,0.,24.0,0.,24.0,0.,24.0,0.,24.0
1979-07-17 13:47:22.290 ,1,1,2.,24.0,0.,24.0,0.,24.0,0.,24.0
1979-07-17 13:47:46.290 ,1,0,0.,24.0,0.,24.0,0.,24.0,0.,24.0
1979-07-17 13:48:10.290 ,0,1,0.,24.0,0.,24.0,0.,24.0,0.,24.0
1979-07-17 13:48:34.290 ,0,0,0.,24.0,0.,24.0,0.,24.0,0.,24.0
1979-07-17 13:48:58.290 ,0,1,0.,24.0,0.,24.0,0.,24.0,0.,24.0
1979-07-17 13:49:22.290 ,0,0,0.,24.0,0.,24.0,0.,24.0,0.,24.0
1979-07-17 13:49:46.290 ,1,1,1.,24.0,0.,24.0,0.,24.0,0.,24.0
1979-07-17 13:50:10.290 ,1,0,0.,24.0,2.,24.0,0.,24.0,0.,24.0
1979-07-17 13:50:34.290 ,2,1,1.,24.0,0.,24.0,0.,24.0,0.,24.0
1979-07-17 13:50:58.290 ,2,0,0.,24.0,0.,24.0,0.,24.0,0.,24.0
1979-07-17 13:51:22.290 ,3,1,1.,24.0,0.,24.0,0.,24.0,0.,24.0
1979-07-17 13:51:46.290 ,3,0,2.,24.0,0.,24.0,0.,24.0,0.,24.0
1979-07-17 13:52:10.290 ,4,1,0.,24.0,0.,24.0,1.,24.0,0.,24.0
1979-07-17 13:52:34.290 ,4,0,0.,24.0,0.,24.0,0.,24.0,0.,24.0
1979-07-17 13:52:58.290 ,5,1,0.,24.0,0.,24.0,0.,24.0,0.,24.0
1979-07-17 13:53:22.290 ,5,0,0.,24.0,0.,24.0,0.,24.0,0.,24.0
1979-07-17 13:53:46.290 ,6,1,0.,24.0,0.,24.0,0.,24.0,0.,24.0
1979-07-17 13:54:10.290 ,6,0,1.,24.0,0.,24.0,0.,24.0,0.,24.0
1979-07-17 13:54:34.290 ,7,0,5.,24.0,0.,24.0,0.,24.0,0.,24.0
1979-07-17 13:54:58.290 ,7,0,37.,24.0,0.,24.0,0.,24.0,0.,24.0
1979-07-17 13:55:22.290 ,5,1,13.,24.0,0.,24.0,0.,24.0,0.,24.0
1979-07-17 13:55:46.290 ,1,1,0.,24.0,0.,24.0,0.,24.0,0.,24.0
1979-07-17 13:56:10.290 ,2,1,0.,24.0,1.,24.0,1.,24.0,0.,24.0
1979-07-17 13:56:34.290 ,6,1,1.,24.0,1.,24.0,0.,24.0,0.,24.0
1979-07-17 13:56:58.290 ,5,1,9.,24.0,0.,24.0,0.,24.0,0.,24.0
1979-07-17 13:57:22.290 ,1,1,0.,24.0,0.,24.0,1.,24.0,0.,24.0
1979-07-17 13:57:46.290 ,2,1,1.,24.0,0.,24.0,1.,24.0,0.,24.0
1979-07-17 13:58:10.290 ,6,1,0.,24.0,0.,24.0,1.,24.0,0.,24.0
1979-07-17 13:58:34.290 ,5,1,9.,24.0,1.,24.0,0.,24.0,0.,24.0
1979-07-17 13:58:58.290 ,1,1,0.,24.0,0.,24.0,0.,24.0,0.,24.0
1979-07-17 13:59:22.290 ,2,1,0.,24.0,0.,24.0,0.,24.0,0.,24.0
1979-07-17 13:59:46.290 ,6,1,0.,24.0,0.,24.0,0.,24.0,0.,24.0
1979-07-17 14:00:10.290 ,5,1,26.,24.0,0.,24.0,0.,24.0,0.,24.0
1979-07-17 14:00:34.290 ,1,1,0.,24.0,0.,24.0,0.,24.0,0.,24.0
1979-07-17 14:00:58.290 ,2,1,0.,24.0,0.,24.0,0.,24.0,0.,24.0
1979-07-17 14:01:22.290 ,6,1,1.,24.0,0.,24.0,0.,24.0,0.,24.0
1979-07-17 14:01:46.290 ,5,1,15.,24.0,1.,24.0,0.,24.0,0.,24.0
1979-07-17 14:02:10.290 ,1,1,0.,24.0,0.,24.0,0.,24.0,0.,24.0
1979-07-17 14:02:34.290 ,2,1,0.,24.0,0.,24.0,0.,24.0,0.,24.0
1979-07-17 14:02:58.290 ,6,1,0.,24.0,0.,24.0,0.,24.0,0.,24.0
1979-07-17 14:03:22.290 ,5,1,18.,24.0,1.,24.0,0.,24.0,0.,24.0
1979-07-17 14:03:46.290 ,1,1,0.,24.0,0.,24.0,0.,24.0,0.,24.0
1979-07-17 14:04:10.290 ,2,1,0.,24.0,0.,24.0,1.,24.0,0.,24.0
1979-07-17 14:04:34.290 ,6,1,0.,24.0,0.,24.0,1.,24.0,0.,24.0
1979-07-17 14:04:58.290 ,5,1,23.,24.0,0.,24.0,0.,24.0,0.,24.0
1979-07-17 14:05:22.290 ,1,1,0.,24.0,0.,24.0,1.,24.0,0.,24.0
1979-07-17 14:05:46.290 ,0,0,1.,24.0,0.,24.0,0.,24.0,0.,24.0
1979-07-17 14:06:10.290 ,0,0,0.,24.0,0.,24.0,0.,24.0,0.,24.0
1979-07-17 14:06:34.290 ,5,1,21.,24.0,1.,24.0,0.,24.0,0.,24.0
1979-07-17 14:06:58.290 ,5,0,1.,24.0,0.,24.0,0.,24.0,0.,24.0
1979-07-17 14:07:22.290 ,4,1,0.,24.0,0.,24.0,0.,24.0,0.,24.0
1979-07-17 14:07:46.290 ,4,0,0.,24.0,0.,24.0,0.,24.0,0.,24.0
1979-07-17 14:08:10.290 ,3,1,0.,24.0,0.,24.0,0.,24.0,0.,24.0
1979-07-17 14:08:34.290 ,3,0,0.,24.0,0.,24.0,0.,24.0,0.,24.0
1979-07-17 14:08:58.290 ,2,1,1.,24.0,0.,24.0,0.,24.0,0.,24.0
1979-07-17 14:09:22.290 ,2,0,1.,24.0,0.,24.0,0.,24.0,0.,24.0
1979-07-17 14:09:46.290 ,1,1,0.,24.0,1.,24.0,0.,24.0,0.,24.0
1979-07-17 14:10:10.290 ,1,0,0.,24.0,0.,24.0,0.,24.0,0.,24.0
1979-07-17 14:10:34.290 ,0,1,0.,24.0,0.,24.0,1.,24.0,0.,24.0
1979-07-17 14:10:58.290 ,0,0,1.,24.0,0.,24.0,1.,24.0,0.,24.0
1979-07-17 14:11:22.290 ,0,1,0.,24.0,0.,24.0,0.,24.0,0.,24.0
1979-07-17 14:11:46.290 ,0,0,1.,24.0,0.,24.0,0.,24.0,0.,24.0
1979-07-17 14:12:10.290 ,1,1,0.,24.0,1.,24.0,0.,24.0,0.,24.0
1979-07-17 14:12:34.290 ,1,0,1.,24.0,1.,24.0,0.,24.0,0.,24.0
1979-07-17 14:12:58.290 ,2,1,0.,24.0,0.,24.0,0.,24.0,0.,24.0
1979-07-17 14:13:22.290 ,2,0,0.,24.0,0.,24.0,0.,24.0,0.,24.0
1979-07-17 14:13:46.290 ,3,1,0.,24.0,0.,24.0,0.,24.0,0.,24.0
1979-07-17 14:14:10.290 ,3,0,1.,24.0,1.,24.0,0.,24.0,0.,24.0
1979-07-17 14:14:34.290 ,4,1,0.,24.0,2.,24.0,0.,24.0,0.,24.0
1979-07-17 14:14:58.290 ,4,0,0.,24.0,1.,24.0,0.,24.0,0.,24.0
1979-07-17 14:15:22.290 ,5,1,0.,24.0,0.,24.0,0.,24.0,0.,24.0
1979-07-17 14:15:46.290 ,5,0,0.,24.0,0.,24.0,0.,24.0,0.,24.0
1979-07-17 14:16:10.290 ,6,1,1.,24.0,0.,24.0,1.,24.0,0.,24.0
1979-07-17 14:16:34.290 ,6,0,1.,24.0,0.,24.0,1.,24.0,0.,24.0
1979-07-17 14:16:58.290 ,7,1,3.,24.0,0.,24.0,0.,24.0,0.,24.0
1979-07-17 14:17:22.290 ,7,0,30.,24.0,0.,24.0,0.,24.0,0.,24.0
1979-07-17 14:17:46.290 ,7,1,37.,24.0,0.,24.0,0.,24.0,0.,24.0
1979-07-17 14:18:10.290 ,7,0,38.,24.0,0.,24.0,0.,24.0,0.,24.0
1979-07-17 14:18:34.290 ,6,1,15.,24.0,0.,24.0,0.,24.0,0.,24.0
1979-07-17 14:18:58.290 ,6,0,0.,24.0,0.,24.0,0.,24.0,0.,24.0
1979-07-17 14:19:22.290 ,5,1,1.,24.0,0.,24.0,0.,24.0,0.,24.0
1979-07-17 14:19:46.290 ,5,0,0.,24.0,0.,24.0,0.,24.0,0.,24.0
1979-07-17 14:20:10.290 ,4,1,0.,24.0,1.,24.0,0.,24.0,0.,24.0
1979-07-17 14:20:34.290 ,4,0,0.,24.0,0.,24.0,0.,24.0,0.,24.0
1979-07-17 14:20:58.290 ,3,1,0.,24.0,1.,24.0,1.,24.0,0.,24.0
1979-07-17 14:21:22.290 ,3,0,0.,24.0,0.,24.0,1.,24.0,0.,24.0
1979-07-17 14:21:46.290 ,2,1,0.,24.0,0.,24.0,0.,24.0,0.,24.0
1979-07-17 14:22:10.290 ,2,0,0.,24.0,1.,24.0,0.,24.0,0.,24.0
1979-07-17 14:22:34.290 ,1,1,0.,24.0,0.,24.0,0.,24.0,0.,24.0
1979-07-17 14:22:58.290 ,1,0,0.,24.0,0.,24.0,0.,24.0,0.,24.0
1979-07-17 14:23:22.290 ,0,1,0.,24.0,0.,24.0,0.,24.0,0.,24.0
1979-07-17 14:23:46.290 ,0,0,1.,24.0,0.,24.0,1.,24.0,0.,24.0
1979-07-17 14:24:10.290 ,0,1,0.,24.0,0.,24.0,0.,24.0,0.,24.0
1979-07-17 14:24:34.290 ,0,0,0.,24.0,1.,24.0,0.,24.0,0.,24.0
1979-07-17 14:24:58.290 ,1,1,0.,24.0,0.,24.0,0.,24.0,0.,24.0
1979-07-17 14:25:22.290 ,1,0,0.,24.0,0.,24.0,0.,24.0,0.,24.0
1979-07-17 14:25:46.290 ,2,1,0.,24.0,0.,24.0,0.,24.0,0.,24.0
1979-07-17 14:26:10.290 ,2,0,1.,24.0,0.,24.0,0.,24.0,0.,24.0
1979-07-17 14:26:34.290 ,3,1,0.,24.0,1.,24.0,0.,24.0,0.,24.0
1979-07-17 14:26:58.290 ,3,0,0.,24.0,0.,24.0,0.,24.0,0.,24.0
1979-07-17 14:27:22.290 ,4,1,1.,24.0,0.,24.0,0.,24.0,0.,24.0
1979-07-17 14:27:46.290 ,4,0,1.,24.0,0.,24.0,1.,24.0,0.,24.0
1979-07-17 14:28:10.290 ,5,1,2.,24.0,0.,24.0,0.,24.0,0.,24.0
1979-07-17 14:28:34.290 ,5,0,0.,24.0,1.,24.0,0.,24.0,0.,24.0
1979-07-17 14:28:58.290 ,6,1,1.,24.0,0.,24.0,0.,24.0,0.,24.0
1979-07-17 14:29:22.290 ,6,0,1.,24.0,0.,24.0,0.,24.0,0.,24.0
1979-07-17 14:29:46.290 ,7,1,9.,24.0,0.,24.0,0.,24.0,0.,24.0
1979-07-17 14:30:10.290 ,7,0,37.,24.0,0.,24.0,1.,24.0,0.,24.0
1979-07-17 14:30:34.290 ,7,1,16.,24.0,0.,24.0,0.,24.0,0.,24.0
1979-07-17 14:30:58.290 ,7,0,29.,24.0,0.,24.0,0.,24.0,0.,24.0
1979-07-17 14:31:22.290 ,6,1,20.,24.0,0.,24.0,0.,24.0,0.,24.0
1979-07-17 14:31:46.290 ,6,0,0.,24.0,0.,24.0,0.,24.0,0.,24.0
1979-07-17 14:32:10.290 ,5,1,0.,24.0,0.,24.0,0.,24.0,0.,24.0
1979-07-17 14:32:34.290 ,5,0,0.,24.0,0.,24.0,0.,24.0,0.,24.0
1979-07-17 14:32:58.290 ,4,1,0.,24.0,1.,24.0,0.,24.0,0.,24.0
1979-07-17 14:33:22.290 ,4,0,1.,24.0,0.,24.0,0.,24.0,0.,24.0
1979-07-17 14:33:46.290 ,3,1,1.,24.0,2.,24.0,0.,24.0,0.,24.0
1979-07-17 14:34:10.290 ,3,0,0.,24.0,1.,24.0,0.,24.0,0.,24.0